Corpus Christi NAS, TX

6:37 PM CDT on September 21, 2017 (GMT -0500)
Corpus Christi Naval Air Station-Truax

Weather History for KNGP - April, 2014

Change the Weather History Date:

Sunday, April 13, 2014

  Actual Average Record
Temperature  
Mean Temperature 76 °F -  
Max Temperature 82 °F 76 °F 90 °F (2009)
Min Temperature 71 °F 63 °F 45 °F (2004)
Cooling Degree Days 12    
Growing Degree Days 26 (Base 50)    
Moisture  
Dew Point 72 °F    
Average Humidity 90    
Maximum Humidity 97    
Minimum Humidity 71    
Precipitation  
Precipitation 0.00 in - - ()
Sea Level Pressure  
Sea Level Pressure 29.78 in    
Wind  
Wind Speed 17 mph (SSE)    
Max Wind Speed 23 mph    
Max Gust Speed 31 mph    
Visibility 8 miles    
Events      
Averages and records for this station are not official NWS values.
T = Trace of Precipitation, MM = Missing Value Source: NWS Daily Summary

Daily Weather History Graph

Daily Weather History Graph

Search for Another Location

Airport or City:

Trip Planner

Search our weather history database for the weather conditions in past years. The results will help you decide how hot, cold, wet, or windy it might be!

Date:

Astronomy

Apr. 13, 2014 Rise Set
Actual Time 7:06 AM CDT 7:53 PM CDT
Civil Twilight 6:42 AM CDT 8:17 PM CDT
Nautical Twilight 6:14 AM CDT 8:45 PM CDT
Astronomical Twilight 5:45 AM CDT 9:13 PM CDT
Moon 6:38 PM CDT (4/13) 5:57 AM CDT (4/13)
Length of Visible Light 13h 34m
Length of Day
12h 46m
Waxing Gibbous, 97% of the Moon is Illuminated
Apr 13
Waxing Gibbous
Apr 15
Full
Apr 22
Last Quarter
Apr 29
New
May 6
First Quarter

Hourly Weather History & Observations

Time (CDT) Temp. Heat Index Dew Point Humidity Pressure Visibility Wind Dir Wind Speed Gust Speed Precip Events Conditions
12:04 AM 71.1 °F - 70.0 °F 96% 29.88 in 9.0 mi SSE 13.8 mph - N/A   Mostly Cloudy
12:19 AM 72.0 °F - 70.0 °F 93% 29.88 in 9.0 mi SSE 19.6 mph 25.3 mph N/A   Scattered Clouds
12:31 AM 72.0 °F - 70.0 °F 93% 29.88 in 9.0 mi SSE 17.3 mph 25.3 mph N/A   Mostly Cloudy
12:56 AM 72.0 °F - 70.0 °F 93% 29.87 in 9.0 mi SSE 12.7 mph - N/A   Mostly Cloudy
1:33 AM 72.0 °F - 70.0 °F 93% 29.86 in 9.0 mi SSE 13.8 mph - N/A   Scattered Clouds
1:41 AM 72.0 °F - 70.0 °F 93% 29.86 in 9.0 mi SSE 17.3 mph 21.9 mph N/A   Mostly Cloudy
1:56 AM 72.0 °F - 70.0 °F 93% 29.85 in 9.0 mi SSE 16.1 mph - N/A   Overcast
2:06 AM 72.0 °F - 70.0 °F 93% 29.84 in 8.0 mi SSE 12.7 mph - N/A   Overcast
2:14 AM 72.0 °F - 70.0 °F 93% 29.85 in 8.0 mi SSE 16.1 mph - N/A   Overcast
2:29 AM 72.0 °F - 71.1 °F 97% 29.85 in 8.0 mi SSE 16.1 mph - N/A   Overcast
2:56 AM 72.0 °F - 71.1 °F 97% 29.83 in 8.0 mi SSE 16.1 mph 24.2 mph N/A   Overcast
3:56 AM 72.0 °F - 71.1 °F 97% 29.81 in 7.0 mi SSE 16.1 mph - N/A   Mostly Cloudy
4:56 AM 73.0 °F - 71.1 °F 93% 29.79 in 6.0 mi SSE 16.1 mph - N/A   Overcast
5:27 AM 73.0 °F - 72.0 °F 96% 29.79 in 6.0 mi SSE 17.3 mph - N/A   Overcast
5:56 AM 72.0 °F - 71.1 °F 97% 29.79 in 5.0 mi SSE 15.0 mph - N/A   Overcast
6:26 AM 72.0 °F - 71.1 °F 97% 29.78 in 6.0 mi SE 13.8 mph - N/A   Mostly Cloudy
6:56 AM 72.0 °F - 71.1 °F 97% 29.78 in 6.0 mi SSE 13.8 mph - N/A   Overcast
7:21 AM 72.0 °F - 71.1 °F 97% 29.78 in 5.0 mi SE 13.8 mph - N/A   Overcast
7:56 AM 73.0 °F - 71.1 °F 93% 29.79 in 6.0 mi SE 15.0 mph 24.2 mph N/A   Overcast
8:03 AM 73.0 °F - 71.1 °F 93% 29.80 in 6.0 mi SE 15.0 mph - N/A   Overcast
8:13 AM 73.0 °F - 71.1 °F 93% 29.81 in 5.0 mi SE 13.8 mph - N/A   Overcast
8:56 AM 73.9 °F - 71.1 °F 91% 29.82 in 6.0 mi SSE 16.1 mph - N/A   Overcast
9:24 AM 73.9 °F - 71.1 °F 91% 29.83 in 7.0 mi SSE 16.1 mph - N/A   Overcast
9:56 AM 75.0 °F - 71.1 °F 87% 29.81 in 7.0 mi SSE 19.6 mph - N/A   Overcast
10:56 AM 75.9 °F - 71.1 °F 85% 29.82 in 9.0 mi SSE 20.7 mph - N/A   Overcast
11:56 AM 80.1 °F 83.8 °F 72.0 °F 76% 29.79 in 10.0 mi SSE 19.6 mph 29.9 mph N/A   Scattered Clouds
12:56 PM 80.1 °F 83.8 °F 72.0 °F 76% 29.77 in 10.0 mi SSE 23.0 mph 29.9 mph N/A   Overcast
1:47 PM 80.1 °F 83.8 °F 72.0 °F 76% 29.76 in 10.0 mi SSE 19.6 mph 25.3 mph N/A   Mostly Cloudy
1:56 PM 82.0 °F 86.7 °F 72.0 °F 71% 29.77 in 10.0 mi SSE 19.6 mph 26.5 mph N/A   Mostly Cloudy
2:07 PM 81.0 °F 85.2 °F 72.0 °F 74% 29.76 in 10.0 mi SSE 18.4 mph 28.8 mph N/A   Mostly Cloudy
2:37 PM 79.0 °F - 72.0 °F 79% 29.75 in 10.0 mi SSE 20.7 mph 27.6 mph N/A   Overcast
2:56 PM 79.0 °F - 72.0 °F 79% 29.74 in 10.0 mi SSE 17.3 mph 27.6 mph N/A   Mostly Cloudy
3:48 PM 79.0 °F - 72.0 °F 79% 29.72 in 10.0 mi SE 17.3 mph - N/A   Mostly Cloudy
3:56 PM 78.1 °F - 72.0 °F 81% 29.72 in 10.0 mi SE 19.6 mph 26.5 mph N/A   Mostly Cloudy
4:46 PM 79.0 °F - 72.0 °F 79% 29.71 in 10.0 mi SE 20.7 mph - N/A   Mostly Cloudy
4:56 PM 78.1 °F - 72.0 °F 81% 29.70 in 10.0 mi SSE 23.0 mph 29.9 mph N/A   Scattered Clouds
5:56 PM 77.0 °F - 72.0 °F 84% 29.68 in 9.0 mi SSE 20.7 mph 31.1 mph N/A   Clear
6:54 PM 75.2 °F - 71.6 °F 89% 29.68 in 8.0 mi SE 20.7 mph 28.8 mph N/A   Partly Cloudy
6:56 PM 75.0 °F - 72.0 °F 90% 29.68 in 8.0 mi SE 19.6 mph 28.8 mph N/A   Partly Cloudy
7:56 PM 75.0 °F - 72.0 °F 90% 29.69 in 8.0 mi SE 20.7 mph 26.5 mph N/A   Clear
8:56 PM 75.0 °F - 73.0 °F 94% 29.69 in 9.0 mi SSE 19.6 mph - N/A   Clear
9:05 PM 73.9 °F - 73.0 °F 97% 29.69 in 8.0 mi SSE 19.6 mph 28.8 mph N/A   Partly Cloudy
9:56 PM 73.9 °F - 73.0 °F 97% 29.70 in 8.0 mi SSE 19.6 mph 27.6 mph N/A   Scattered Clouds
10:20 PM 75.0 °F - 73.0 °F 94% 29.72 in 7.0 mi SSE 18.4 mph 24.2 mph N/A   Mostly Cloudy
10:56 PM 73.9 °F - 73.0 °F 97% 29.74 in 7.0 mi SSE 16.1 mph - N/A   Overcast
11:09 PM 73.9 °F - 73.0 °F 97% 29.73 in 6.0 mi SSE 17.3 mph 25.3 mph N/A   Overcast
11:23 PM 73.9 °F - 73.0 °F 97% 29.73 in 6.0 mi SSE 18.4 mph 25.3 mph N/A   Overcast
11:56 PM 75.0 °F - 73.0 °F 94% 29.73 in 7.0 mi SSE 15.0 mph - N/A   Overcast